Location: Neuvy Saint Sepulchre
(46.5953°N, 1.8122°E)
Time: 08:37:19
(UTC+02:00)

ISS - Pass Details

Date: 13 July 2021
Orbit: 419 x 421 km, 51.6° (Epoch: 03 August)

Event Time Altitude Azimuth Distance (km) Brightness Sun altitude
Rises 02:51:52 0° 285° (WNW) 2,370 0.1 -20.5°
Reaches altitude 10° 02:54:06 10° 295° (WNW) 1,505 -0.8 -20.4°
Maximum altitude 02:57:12 33° 2° (N) 731 -1.9 -20.3°
Drops below altitude 10° 03:00:18 10° 69° (ENE) 1,504 -0.5 -20.2°
Sets 03:02:32 0° 79° (E) 2,367 0.4 -20.1°
